Home > Weather > Nuuk > Past weeks

Flag for Greenland Past Weather in Nuuk, Greenland — Yesterday and Last 2 Weeks

Now
45 °F

Rain. Fog.


Feels Like: 41 °F
Forecast: 40 / 49 °F
Wind: 7 mph from South

Location: Godthaab / Nuuk

Current Time: Jun 27, 2016 at 12:59:03 PM

Latest Report: Jun 27, 2016 at 11:50 AM


Visibility: N/A

Pressure: 29.83 "Hg

Humidity: 81%

Dew Point: 39 °F

Location of NuukLocation

Past Weather in Nuuk — Graph

°F

Nuuk Temperature Yesterday

Maximum temperature yesterday: 43 °F (at 2:50 PM)
Minimum temperature yesterday: 39 °F (at 12:50 AM)
Average temperature yesterday: 40 °F

High & Low Weather Summary for the Past Weeks

 TemperatureHumidityPressure
High64 °F (Jun 12, 4:50 PM)100% (Jun 13, 1:50 AM)30.07 "Hg (Jun 13, 1:50 AM)
Low34 °F (Jun 17, 1:50 AM)33% (Jun 20, 4:50 PM)29.45 "Hg (Jun 22, 4:50 AM)
Average45 °F74%29.74 "Hg
* Reported Jun 12 11:50 AM — Jun 27 11:50 AM, Nuuk, Weather by CustomWeather, © 2016

Note: Actual official high and low records may vary slightly from our data, if they occured in-between our weather recording intervals... More about our weather records

Advertising

Nuuk Weather History for the Previous 24 Hours

Scroll right to see more
 ConditionsComfort  
Time TempWeatherWind HumidityBarometerVisibility
11:50 AM
Mon, Jun 27
45 °FRain. Fog.7 mph81%29.83 "HgN/A
10:50 AM39 °FSnow. Broken clouds.7 mph93%29.86 "HgN/A
9:50 AM39 °FSnow. Dense fog.7 mph93%29.86 "Hg1 mi
7:50 AM41 °FBroken clouds.5 mph87%29.86 "HgN/A
6:50 AM41 °FPartly sunny.5 mph87%29.86 "HgN/A
5:50 AM39 °FPartly sunny.6 mph93%29.89 "HgN/A
4:50 AM39 °FOvercast.7 mph93%29.89 "HgN/A
3:50 AM39 °FPartly sunny.7 mph93%29.86 "HgN/A
2:50 AM39 °FPartly cloudy.9 mph93%29.86 "HgN/A
1:50 AM39 °FOvercast.9 mph93%29.86 "HgN/A
12:50 AM39 °FOvercast.8 mph93%29.86 "HgN/A
11:50 PM
Sun, Jun 26
39 °FBroken clouds.8 mph93%29.86 "HgN/A
10:50 PM39 °FPartly sunny.8 mph93%29.86 "HgN/A
9:50 PM39 °FPartly sunny.8 mph93%29.86 "HgN/A
8:50 PM39 °FSprinkles. Broken clouds.9 mph100%29.86 "HgN/A
7:50 PM39 °FDrizzle. Fog.12 mph100%29.86 "Hg2 mi
6:50 PM41 °FBroken clouds.12 mph87%29.83 "HgN/A
4:50 PM39 °FBroken clouds.13 mph93%29.83 "HgN/A
3:50 PM43 °FPartly sunny.14 mph76%29.80 "HgN/A
2:50 PM43 °FPartly sunny.16 mph76%29.80 "HgN/A
1:50 PM41 °FPartly sunny.10 mph87%29.80 "HgN/A
12:50 PM41 °FBroken clouds.10 mph81%29.80 "HgN/A
Weather by CustomWeather, © 2016

See weather overviewHow to use our weather pages